Onweer radar Meer informatie blitzortung!


waarschuwing voor winterse neerslag Meer informatie rain snow radar


Bezoek onze andere website:

Template documentation
and downloads

And another site



Sneeuw/IJzel/Bevriezing van: 13-12-2018 08:00 tot: 10:00 waarschuwing voor: Sneeuw/IJzel/Bevriezing niveau: Geel info button
Lokaal glad door bevriezing van natte weggedeelten.Kans op gladheid.Alle verkeersdeelnemers kunnen hinder ondervinden.Pas uw rijgedrag aan.Volg weerberichten en waarschuwingen.

Weather Underground Historische gegevens

Dagelijkse Samenvatting december 13, 2018 Eenheden:  Metrisch    Engels   Beide
« Vorige Dag
Volgende Dag »
Dagelijkse Wekelijkse Maandelijkse Jaarlijkse Aangepaste
  Huidig: Hoog: Laag: Gemiddeld:
Temperatuur: -17.1 °C -17.8 °C -17.4 °C -17 °C
Dauwpunt: -17.8 °C -17.8 °C -18.1 °C -17.8 °C
Vochtigheid: 91 % Humidity % 88 % 90 %
Wind snelheid: 12.9 km/h 0 km/h 0 km/h 8 km/h
Windvlaag: 31.1 km/h 0 km/h - -
Wind:ENE - - East
Luchtdruk: 34608.3 hPa 0 hPa 34594.8 hPa -
Neerslag: 0 mm      
Historical Graphs
 
 
Tabel voor december 13, 2018
Tijd Temperatuur Dauwpunt Luchtdruk Wind Wind snelheid Windvlaag Vochtigheid Regenval per uur
-17.8 °C -17.8 °C 0 hPa Calm     Humidity % 0 mm
00:04 -16.3 °C -17.3 °C 34672.6 hPa East 7.7 km/h 20.8 km/h 88 % 0 mm
00:09 -16.3 °C -17.3 °C 34672.6 hPa East 7.7 km/h 25.9 km/h 89 % 0 mm
00:14 -16.4 °C -17.3 °C 34672.6 hPa East 7.7 km/h 25.9 km/h 89 % 0 mm
00:19 -16.4 °C -17.3 °C 34672.6 hPa East 7.7 km/h 23.3 km/h 89 % 0 mm
00:24 -16.4 °C -17.3 °C 34672.6 hPa East 7.7 km/h 31.1 km/h 89 % 0 mm
00:29 -16.4 °C -17.3 °C 34672.6 hPa East 10.3 km/h 31.1 km/h 89 % 0 mm
00:34 -16.4 °C -17.3 °C 34672.6 hPa East 7.7 km/h 31.1 km/h 89 % 0 mm
00:39 -16.5 °C -17.4 °C 34672.6 hPa East 5.1 km/h 31.1 km/h 89 % 0 mm
00:44 -16.5 °C -17.4 °C 34669.3 hPa East 7.7 km/h 23.3 km/h 89 % 0 mm
00:49 -16.5 °C -17.4 °C 34665.9 hPa East 7.7 km/h 31.1 km/h 89 % 0 mm
00:54 -16.5 °C -17.4 °C 34665.9 hPa East 7.7 km/h 31.1 km/h 89 % 0 mm
01:00 -16.5 °C -17.4 °C 34665.9 hPa East 7.7 km/h 25.9 km/h 89 % 0 mm
01:04 -16.5 °C -17.4 °C 34669.3 hPa East 7.7 km/h 20.8 km/h 89 % 0 mm
01:09 -16.5 °C -17.4 °C 34665.9 hPa East 7.7 km/h 20.8 km/h 89 % 0 mm
01:14 -16.6 °C -17.4 °C 34665.9 hPa East 7.7 km/h 20.8 km/h 89 % 0 mm
01:19 -16.6 °C -17.4 °C 34662.5 hPa East 5.1 km/h 20.8 km/h 89 % 0 mm
01:24 -16.6 °C -17.4 °C 34665.9 hPa East 5.1 km/h 18.2 km/h 89 % 0 mm
01:29 -16.6 °C -17.5 °C 34665.9 hPa East 7.7 km/h 23.3 km/h 89 % 0 mm
01:34 -16.6 °C -17.4 °C 34665.9 hPa East 7.7 km/h 23.3 km/h 90 % 0 mm
01:40 -16.6 °C -17.4 °C 34665.9 hPa East 5.1 km/h 23.3 km/h 90 % 0 mm
01:44 -16.6 °C -17.4 °C 34665.9 hPa East 7.7 km/h 28.5 km/h 90 % 0 mm
01:49 -16.6 °C -17.4 °C 34662.5 hPa East 7.7 km/h 28.5 km/h 90 % 0 mm
01:54 -16.6 °C -17.4 °C 34659.1 hPa East 7.7 km/h 23.3 km/h 90 % 0 mm
01:59 -16.6 °C -17.4 °C 34659.1 hPa East 7.7 km/h 23.3 km/h 90 % 0 mm
02:04 -16.7 °C -17.4 °C 34659.1 hPa East 7.7 km/h 23.3 km/h 90 % 0 mm
02:09 -16.7 °C -17.4 °C 34659.1 hPa East 7.7 km/h 23.3 km/h 90 % 0 mm
02:14 -16.7 °C -17.6 °C 34659.1 hPa East 7.7 km/h 25.9 km/h 90 % 0 mm
02:19 -16.7 °C -17.6 °C 34655.7 hPa East 5.1 km/h 25.9 km/h 90 % 0 mm
02:24 -16.7 °C -17.4 °C 34655.7 hPa ESE 7.7 km/h 28.5 km/h 91 % 0 mm
02:29 -16.7 °C -17.4 °C 34655.7 hPa East 10.3 km/h 28.5 km/h 91 % 0 mm
02:34 -16.7 °C -17.4 °C 34655.7 hPa East 10.3 km/h 23.3 km/h 91 % 0 mm
02:39 -16.7 °C -17.4 °C 34655.7 hPa East 7.7 km/h 23.3 km/h 91 % 0 mm
02:44 -16.8 °C -17.5 °C 34652.3 hPa East 5.1 km/h 20.8 km/h 91 % 0 mm
02:49 -16.8 °C -17.5 °C 34648.9 hPa East 7.7 km/h 25.9 km/h 91 % 0 mm
02:54 -16.8 °C -17.5 °C 34645.6 hPa East 10.3 km/h 25.9 km/h 91 % 0 mm
02:59 -16.8 °C -17.5 °C 34642.2 hPa East 7.7 km/h 20.8 km/h 91 % 0 mm
03:04 -16.8 °C -17.5 °C 34642.2 hPa East 7.7 km/h 23.3 km/h 91 % 0 mm
03:09 -16.8 °C -17.5 °C 34638.8 hPa East 10.3 km/h 23.3 km/h 91 % 0 mm
03:14 -16.8 °C -17.5 °C 34642.2 hPa East 10.3 km/h 25.9 km/h 91 % 0 mm
03:19 -16.8 °C -17.6 °C 34638.8 hPa East 7.7 km/h 25.9 km/h 91 % 0 mm
03:24 -16.8 °C -17.6 °C 34638.8 hPa ENE 7.7 km/h 20.8 km/h 91 % 0 mm
03:29 -16.9 °C -17.6 °C 34635.4 hPa ENE 7.7 km/h 20.8 km/h 91 % 0 mm
03:34 -16.9 °C -17.6 °C 34635.4 hPa East 7.7 km/h 20.8 km/h 91 % 0 mm
03:39 -16.9 °C -17.7 °C 34635.4 hPa East 5.1 km/h 18.2 km/h 91 % 0 mm
03:44 -17 °C -17.7 °C 34635.4 hPa ENE 2.6 km/h 12.9 km/h 91 % 0 mm
03:49 -17 °C -17.7 °C 34632 hPa ENE 5.1 km/h 10.3 km/h 91 % 0 mm
03:54 -17.1 °C -17.8 °C 34632 hPa East 2.6 km/h 10.3 km/h 91 % 0 mm
03:59 -17.1 °C -17.8 °C 34632 hPa East 2.6 km/h 7.7 km/h 91 % 0 mm
04:04 -17.1 °C -17.8 °C 34628.6 hPa East 2.6 km/h 7.7 km/h 91 % 0 mm
04:09 -17.2 °C -17.9 °C 34628.6 hPa East 2.6 km/h 7.7 km/h 91 % 0 mm
04:14 -17.2 °C -17.9 °C 34625.2 hPa East 2.6 km/h 10.3 km/h 91 % 0 mm
04:19 -17.2 °C -17.9 °C 34621.9 hPa ENE 2.6 km/h 10.3 km/h 91 % 0 mm
04:24 -17.3 °C -18 °C 34621.9 hPa ENE 2.6 km/h 12.9 km/h 91 % 0 mm
04:29 -17.3 °C -18 °C 34621.9 hPa ENE 2.6 km/h 12.9 km/h 91 % 0 mm
04:34 -17.3 °C -18 °C 34621.9 hPa ENE 2.6 km/h 15.6 km/h 91 % 0 mm
04:39 -17.3 °C -18.1 °C 34621.9 hPa ENE 2.6 km/h 15.6 km/h 91 % 0 mm
04:44 -17.3 °C -18.1 °C 34618.5 hPa ENE 2.6 km/h 15.6 km/h 91 % 0 mm
04:49 -17.3 °C -17.9 °C 34615.1 hPa NE 2.6 km/h 12.9 km/h 92 % 0 mm
04:54 -17.4 °C -18 °C 34615.1 hPa Calm   12.9 km/h 92 % 0 mm
04:59 -17.4 °C -18 °C 34611.7 hPa ENE 2.6 km/h 10.3 km/h 92 % 0 mm
05:04 -17.4 °C -18 °C 34611.7 hPa ENE 2.6 km/h 12.9 km/h 92 % 0 mm
05:09 -17.4 °C -18 °C 34608.3 hPa ENE 2.6 km/h 12.9 km/h 92 % 0 mm
05:14 -17.4 °C -18 °C 34604.9 hPa ENE 2.6 km/h 18.2 km/h 92 % 0 mm
05:19 -17.4 °C -18 °C 34604.9 hPa ENE 2.6 km/h 18.2 km/h 92 % 0 mm
05:24 -17.4 °C -18 °C 34601.5 hPa ENE 2.6 km/h 12.9 km/h 92 % 0 mm
05:29 -17.4 °C -18 °C 34604.9 hPa ENE 7.7 km/h 20.8 km/h 92 % 0 mm
05:34 -17.3 °C -17.9 °C 34601.5 hPa ENE 10.3 km/h 20.8 km/h 92 % 0 mm
05:39 -17.3 °C -17.9 °C 34604.9 hPa East 10.3 km/h 20.8 km/h 92 % 0 mm
05:44 -17.3 °C -17.9 °C 34601.5 hPa East 10.3 km/h 23.3 km/h 92 % 0 mm
05:49 -17.3 °C -17.9 °C 34601.5 hPa East 10.3 km/h 23.3 km/h 92 % 0 mm
05:54 -17.3 °C -17.9 °C 34601.5 hPa ENE 10.3 km/h 23.3 km/h 92 % 0 mm
05:59 -17.3 °C -18 °C 34601.5 hPa East 10.3 km/h 23.3 km/h 91 % 0 mm
06:04 -17.3 °C -18 °C 34598.1 hPa ENE 7.7 km/h 23.3 km/h 91 % 0 mm
06:09 -17.2 °C -17.9 °C 34598.1 hPa ENE 7.7 km/h 28.5 km/h 91 % 0 mm
06:14 -17.2 °C -17.9 °C 34598.1 hPa ENE 12.9 km/h 28.5 km/h 91 % 0 mm
06:19 -17.2 °C -17.9 °C 34601.5 hPa East 12.9 km/h 25.9 km/h 91 % 0 mm
06:24 -17.2 °C -17.9 °C 34598.1 hPa East 10.3 km/h 23.3 km/h 91 % 0 mm
06:29 -17.2 °C -17.9 °C 34598.1 hPa ENE 10.3 km/h 20.8 km/h 90 % 0 mm
06:34 -17.2 °C -17.9 °C 34598.1 hPa ENE 10.3 km/h 20.8 km/h 90 % 0 mm
06:39 -17.2 °C -17.9 °C 34598.1 hPa ENE 10.3 km/h 23.3 km/h 90 % 0 mm
06:44 -17.2 °C -17.9 °C 34594.8 hPa ENE 10.3 km/h 25.9 km/h 90 % 0 mm
06:49 -17.2 °C -17.9 °C 34594.8 hPa ENE 10.3 km/h 25.9 km/h 90 % 0 mm
06:54 -17.1 °C -17.9 °C 34594.8 hPa ENE 10.3 km/h 20.8 km/h 90 % 0 mm
06:59 -17.1 °C -17.9 °C 34594.8 hPa ENE 7.7 km/h 23.3 km/h 90 % 0 mm
07:04 -17.1 °C -17.9 °C 34598.1 hPa ENE 10.3 km/h 23.3 km/h 90 % 0 mm
07:09 -17.1 °C -17.9 °C 34598.1 hPa ENE 10.3 km/h 20.8 km/h 90 % 0 mm
07:14 -17.1 °C -17.9 °C 34601.5 hPa ENE 10.3 km/h 20.8 km/h 90 % 0 mm
07:19 -17.1 °C -17.9 °C 34601.5 hPa ENE 10.3 km/h 23.3 km/h 89 % 0 mm
07:24 -17.1 °C -17.9 °C 34601.5 hPa ENE 10.3 km/h 23.3 km/h 89 % 0 mm
07:29 -17.1 °C -17.9 °C 34604.9 hPa ENE 10.3 km/h 23.3 km/h 89 % 0 mm
07:34 -17.1 °C -17.9 °C 34608.3 hPa East 10.3 km/h 23.3 km/h 89 % 0 mm
07:39 -17.1 °C -17.9 °C 34611.7 hPa East 10.3 km/h 23.3 km/h 89 % 0 mm
07:44 -17.1 °C -18 °C 34611.7 hPa ENE 12.9 km/h 23.3 km/h 89 % 0 mm
07:49 -17.1 °C -18 °C 34611.7 hPa ENE 10.3 km/h 23.3 km/h 89 % 0 mm
07:54 -17.1 °C -18 °C 34611.7 hPa ENE 10.3 km/h 28.5 km/h 89 % 0 mm
07:59 -17.2 °C -17.9 °C 34611.7 hPa East 12.9 km/h 28.5 km/h 90 % 0 mm
08:04 -17.2 °C -17.9 °C 34611.7 hPa ENE 12.9 km/h 25.9 km/h 90 % 0 mm
08:09 -17.2 °C -17.9 °C 34611.7 hPa ENE 12.9 km/h 28.5 km/h 90 % 0 mm
08:14 -17.2 °C -18 °C 34611.7 hPa ENE 12.9 km/h 28.5 km/h 90 % 0 mm
08:19 -17.2 °C -18 °C 34615.1 hPa ENE 10.3 km/h 28.5 km/h 90 % 0 mm
08:24 -17.3 °C -18 °C 34611.7 hPa ENE 10.3 km/h 28.5 km/h 91 % 0 mm
08:29 -17.3 °C -18 °C 34611.7 hPa ENE 12.9 km/h 28.5 km/h 91 % 0 mm
08:34 -17.3 °C -18 °C 34611.7 hPa ENE 12.9 km/h 28.5 km/h 91 % 0 mm
08:39 -17.3 °C -18 °C 34611.7 hPa ENE 10.3 km/h 23.3 km/h 91 % 0 mm
08:44 -17.3 °C -18 °C 34611.7 hPa ENE 7.7 km/h 23.3 km/h 91 % 0 mm
08:49 -17.3 °C -18 °C 34611.7 hPa ENE 7.7 km/h 23.3 km/h 91 % 0 mm
08:54 -17.2 °C -17.9 °C 34611.7 hPa ENE 7.7 km/h 23.3 km/h 91 % 0 mm
08:59 -17.2 °C -17.9 °C 34615.1 hPa ENE 10.3 km/h 25.9 km/h 91 % 0 mm
09:04 -17.2 °C -17.9 °C 34611.7 hPa ENE 12.9 km/h 25.9 km/h 91 % 0 mm
09:09 -17.2 °C -17.9 °C 34611.7 hPa ENE 12.9 km/h 23.3 km/h 91 % 0 mm
09:14 -17.2 °C -17.9 °C 34611.7 hPa ENE 12.9 km/h 25.9 km/h 91 % 0 mm
09:19 -17.1 °C -17.8 °C 34611.7 hPa ENE 10.3 km/h 25.9 km/h 91 % 0 mm
09:24 -17.2 °C -17.9 °C 34608.3 hPa ENE 10.3 km/h 25.9 km/h 91 % 0 mm
09:29 -17.2 °C -17.9 °C 34608.3 hPa ENE 10.3 km/h 23.3 km/h 91 % 0 mm
09:34 -17.2 °C -17.9 °C 34611.7 hPa ENE 12.9 km/h 23.3 km/h 91 % 0 mm
09:39 -17.1 °C -17.8 °C 34611.7 hPa East 12.9 km/h 23.3 km/h 91 % 0 mm
09:44 -17.1 °C -17.8 °C 34608.3 hPa ENE 12.9 km/h 31.1 km/h 91 % 0 mm
Vlaardingen meteo3131
Gegevens verzameld door Weather Underground - 2 mb

Script ontwikkeld door  Jim McMurry - jmcmurry@mwt.net Aangepast voor de template door  Wim van der Kuil - Leuven-Template.eu

U vindt ons ook hier:

Het Weer Aktueel

European Weather Network

Weather Underground

WeatherlinkIP

HAMweather, WeatherForYou, PWS Weather

Apparatuur in gebruik:

Weerstation
Davis VP2

Weerprogramma
Cumulus

Weercomputer
Zotac

Webleverancier
Quick Servers

Davis VP2

Cumulus

Zotac

Quick Servers